Hourly Data Report for October 23, 2014

All times are specified in Local Standard Time (LST). Add 1 hour to adjust for Daylight Saving Time where and when it is observed.

QIKIQTARJUAQ A
NUNAVUT

67°32'48.000" N
64°01'54.000" W
5.50 m
2400577
YVM

Download Data

Hourly Data (October 2014)
Hourly Data Report for October 23, 2014
Temp Definition
°C
Dew Point Temp Definition
°C
Rel Hum Definition
%
Wind Dir Definition
10's deg

Wind Spd Definition
km/h
Visibility Definition
km
Stn Press Definition
kPa
Hmdx Definition


Wind Chill Definition


Weather Definition


TIME
00:00 Legend Double Dagger -3.5 -7.4 75 21 17 16.1 99.96   -9 LegendNANA
01:00 Legend Double Dagger -3.7 -7.3 76 22 8 16.1 99.95   -7 LegendNANA
02:00 Legend Double Dagger -5.9 -8.9 79 20 8 16.1 99.97   -10 LegendNANA
03:00 Legend Double Dagger -6.7 -10.1 77 14 11 16.1 99.98   -12 LegendNANA
04:00 Legend Double Dagger -7.0 -9.6 82 19 5 16.1 99.98   -10 LegendNANA
05:00 Legend Double Dagger -4.2 -7.4 79 18 5 16.1 99.98   -6 LegendNANA
06:00 Legend Double Dagger -5.4 -9.0 76 19 17 16.1 99.97   -11 LegendNANA
07:00 Legend Double Dagger -3.8 -12.4 52 33 30 16.1 99.98   -11 LegendNANA
08:00 Legend Double Dagger -6.3 -13.8 56 33 26 16.1 100.07   -14 LegendNANA
09:00 Legend Double Dagger -5.8 -16.3 44 32 22 16.1 100.13   -13 LegendNANA
10:00 Legend Double Dagger -6.3 -15.1 50 31 24 16.1 100.15   -14 LegendNANA
11:00 Legend Double Dagger -6.6 -17.4 42 32 22 16.1 100.18   -14 LegendNANA
12:00 Legend Double Dagger -6.1 -16.4 45 29 32 16.1 100.22   -15 LegendNANA
13:00 Legend Double Dagger -6.7 -17.1 44 30 30 16.1 100.26   -15 LegendNANA
14:00 Legend Double Dagger -7.3 -16.8 47 29 32 16.1 100.27   -16 LegendNANA
15:00 Legend Double Dagger -7.7 -17.8 45 30 24 16.1 100.34   -16 LegendNANA
16:00 Legend Double Dagger -8.8 -19.8 41 32 17 16.1 100.40   -16 LegendNANA
17:00 Legend Double Dagger -9.4 -17.8 51 31 18 16.1 100.45   -17 LegendNANA
18:00 Legend Double Dagger -8.9 -17.3 51 34 18 16.1 100.44   -16 LegendNANA
19:00 Legend Double Dagger -9.1 -20.5 40 LegendMM 9 16.1 100.40   -14 LegendNANA
20:00 Legend Double Dagger -9.2 -18.1 49 LegendMM 22 16.1 100.34   -17 LegendNANA
21:00 Legend Double Dagger -8.0 -17.3 48 29 34 16.1 100.24   -17 LegendNANA
22:00 Legend Double Dagger -9.0 -18.4 47 28 21 16.1 100.28   -17 LegendNANA
23:00 Legend Double Dagger -9.4 -18.6 48 LegendMM 24 16.1 100.31   -18 LegendNANA

Notes on Data Quality.

Legend

  • E = Estimated
  • M = Missing
  • NA = Not Available
  • ‡ = Partner data that is not subject to review by the National Climate Archives
Date modified: